Location: Warszawa
(52.2463°N, 21.0173°E)
Time: 03:06:01
(UTC+01:00)

ISS - Visible Passes

Search period start: 17 November 2018 00:00
Search period end: 27 November 2018 00:00
Orbit: 402 x 408 km, 51.6° (Epoch: 17 November)

Date Brightness Start Highest point End Pass type
(mag) Time Alt. Az. Time Alt. Az. Time Alt. Az.
25 Nov -1.4 17:43:16 10° S 17:44:16 14° SSE 17:44:16 14° SSE visible
26 Nov -1.4 16:52:49 10° SSE 16:53:30 10° SE 16:54:10 10° SE visible
26 Nov -1.1 18:26:13 10° SW 18:27:02 16° SW 18:27:02 16° SW visible
